Time,TemperatureF,DewpointF,PressureIn,WindDirection,WindDirectionDegrees,WindSpeedMPH,WindSpeedGustMPH,Humidity,HourlyPrecipIn,Conditions,Clouds,dailyrainin,SoftwareType,DateUTC
2013-08-16 00:06:00,47.9,47.0,30.08,East,86,1.0,3.0,98,0.00,,,0.00,weatherlink.com 1.10,2013-08-16 04:06:00,
2013-08-16 00:21:00,47.9,47.0,30.08,East,82,0.0,3.0,98,0.00,,,0.00,weatherlink.com 1.10,2013-08-16 04:21:00,
2013-08-16 00:36:00,47.9,47.0,30.09,East,83,1.0,3.0,98,0.00,,,0.00,weatherlink.com 1.10,2013-08-16 04:36:00,
2013-08-16 00:51:00,48.4,48.0,30.09,East,101,1.0,5.0,98,0.00,,,0.00,weatherlink.com 1.10,2013-08-16 04:51:00,
2013-08-16 01:06:00,48.5,48.0,30.08,ENE,76,0.0,5.0,98,0.00,,,0.00,weatherlink.com 1.10,2013-08-16 05:06:00,
2013-08-16 01:21:00,48.5,48.0,30.08,ESE,108,1.0,3.0,98,0.00,,,0.00,weatherlink.com 1.10,2013-08-16 05:21:00,
2013-08-16 01:36:00,48.2,48.0,30.07,ESE,110,0.0,1.0,98,0.00,,,0.00,weatherlink.com 1.10,2013-08-16 05:36:00,
2013-08-16 01:51:00,47.9,47.0,30.07,ESE,110,1.0,1.0,98,0.00,,,0.00,weatherlink.com 1.10,2013-08-16 05:51:00,
2013-08-16 02:06:00,47.9,47.0,30.07,ESE,109,0.0,1.0,98,0.00,,,0.00,weatherlink.com 1.10,2013-08-16 06:06:00,
2013-08-16 02:21:00,48.0,48.0,30.07,ESE,104,0.0,2.0,98,0.00,,,0.00,weatherlink.com 1.10,2013-08-16 06:21:00,
2013-08-16 02:36:00,48.2,48.0,30.06,ESE,104,0.0,2.0,98,0.00,,,0.00,weatherlink.com 1.10,2013-08-16 06:36:00,
2013-08-16 02:51:00,48.1,48.0,30.06,ESE,104,0.0,1.0,98,0.00,,,0.00,weatherlink.com 1.10,2013-08-16 06:51:00,
2013-08-16 03:06:00,48.2,48.0,30.06,ESE,111,0.0,2.0,98,0.00,,,0.00,weatherlink.com 1.10,2013-08-16 07:06:00,
2013-08-16 03:21:00,48.4,48.0,30.06,East,100,1.0,3.0,99,0.00,,,0.00,weatherlink.com 1.10,2013-08-16 07:21:00,
2013-08-16 03:36:00,48.5,48.0,30.05,East,92,0.0,2.0,99,0.00,,,0.00,weatherlink.com 1.10,2013-08-16 07:36:00,
2013-08-16 03:51:00,48.2,48.0,30.04,East,92,0.0,2.0,98,0.00,,,0.00,weatherlink.com 1.10,2013-08-16 07:51:00,
2013-08-16 04:06:00,47.5,47.0,30.05,East,92,0.0,1.0,98,0.00,,,0.00,weatherlink.com 1.10,2013-08-16 08:06:00,
2013-08-16 04:21:00,47.3,47.0,30.04,East,92,0.0,1.0,98,0.00,,,0.00,weatherlink.com 1.10,2013-08-16 08:21:00,
2013-08-16 04:36:00,47.4,47.0,30.04,East,92,0.0,1.0,98,0.00,,,0.00,weatherlink.com 1.10,2013-08-16 08:36:00,
2013-08-16 04:51:00,47.5,47.0,30.05,East,92,0.0,1.0,97,0.00,,,0.00,weatherlink.com 1.10,2013-08-16 08:51:00,
2013-08-16 05:06:00,47.7,47.0,30.05,East,92,0.0,0.0,96,0.00,,,0.00,weatherlink.com 1.10,2013-08-16 09:06:00,
2013-08-16 05:21:00,48.2,47.0,30.05,East,92,1.0,1.0,95,0.00,,,0.00,weatherlink.com 1.10,2013-08-16 09:21:00,
2013-08-16 05:36:00,48.8,47.0,30.06,East,92,0.0,1.0,93,0.00,,,0.00,weatherlink.com 1.10,2013-08-16 09:36:00,
2013-08-16 05:51:00,49.1,47.0,30.06,East,92,0.0,2.0,91,0.00,,,0.00,weatherlink.com 1.10,2013-08-16 09:51:00,
2013-08-16 06:06:00,49.7,48.0,30.06,East,92,0.0,0.0,93,0.00,,,0.00,weatherlink.com 1.10,2013-08-16 10:06:00,
2013-08-16 06:21:00,50.1,48.0,30.07,East,92,0.0,0.0,93,0.00,,,0.00,weatherlink.com 1.10,2013-08-16 10:21:00,
2013-08-16 06:36:00,49.9,47.0,30.07,East,92,0.0,0.0,91,0.00,,,0.00,weatherlink.com 1.10,2013-08-16 10:36:00,
2013-08-16 06:51:00,49.3,47.0,30.08,East,92,0.0,0.0,93,0.00,,,0.00,weatherlink.com 1.10,2013-08-16 10:51:00,
2013-08-16 07:06:00,48.8,47.0,30.08,East,92,0.0,2.0,94,0.00,,,0.00,weatherlink.com 1.10,2013-08-16 11:06:00,
2013-08-16 07:21:00,48.6,47.0,30.09,East,92,0.0,1.0,94,0.00,,,0.00,weatherlink.com 1.10,2013-08-16 11:21:00,
2013-08-16 07:36:00,48.7,47.0,30.09,East,101,0.0,1.0,94,0.00,,,0.00,weatherlink.com 1.10,2013-08-16 11:36:00,
2013-08-16 07:51:00,49.1,48.0,30.09,East,101,0.0,0.0,94,0.00,,,0.00,weatherlink.com 1.10,2013-08-16 11:51:00,
2013-08-16 08:06:00,49.8,48.0,30.09,East,101,0.0,0.0,94,0.00,,,0.00,weatherlink.com 1.10,2013-08-16 12:06:00,
2013-08-16 08:21:00,50.0,48.0,30.09,East,101,0.0,0.0,94,0.00,,,0.00,weatherlink.com 1.10,2013-08-16 12:21:00,
2013-08-16 08:36:00,51.5,50.0,30.09,SW,223,0.0,3.0,94,0.00,,,0.00,weatherlink.com 1.10,2013-08-16 12:36:00,
2013-08-16 08:51:00,52.9,50.0,30.09,SW,222,2.0,2.0,88,0.00,,,0.00,weatherlink.com 1.10,2013-08-16 12:51:00,
2013-08-16 09:06:00,54.9,51.0,30.09,SW,222,0.0,2.0,87,0.00,,,0.00,weatherlink.com 1.10,2013-08-16 13:06:00,
2013-08-16 09:21:00,55.0,51.0,30.09,SSE,151,0.0,2.0,87,0.00,,,0.00,weatherlink.com 1.10,2013-08-16 13:21:00,
2013-08-16 09:36:00,55.9,49.0,30.08,WNW,300,0.0,4.0,78,0.00,,,0.00,weatherlink.com 1.10,2013-08-16 13:36:00,
2013-08-16 09:51:00,56.6,52.0,30.09,ENE,69,0.0,4.0,84,0.00,,,0.00,weatherlink.com 1.10,2013-08-16 13:51:00,
2013-08-16 10:06:00,54.7,51.0,30.09,ENE,69,0.0,3.0,88,0.00,,,0.00,weatherlink.com 1.10,2013-08-16 14:06:00,
2013-08-16 10:21:00,53.8,50.0,30.09,ENE,69,0.0,0.0,88,0.00,,,0.00,weatherlink.com 1.10,2013-08-16 14:21:00,
2013-08-16 10:36:00,54.3,51.0,30.10,ESE,119,0.0,1.0,89,0.00,,,0.00,weatherlink.com 1.10,2013-08-16 14:36:00,
2013-08-16 10:52:00,55.2,52.0,30.10,ESE,119,0.0,2.0,88,0.00,,,0.00,weatherlink.com 1.10,2013-08-16 14:52:00,
2013-08-16 11:07:00,55.7,52.0,30.09,East,79,0.0,2.0,86,0.00,,,0.00,weatherlink.com 1.10,2013-08-16 15:07:00,
2013-08-16 11:22:00,56.6,52.0,30.09,East,81,0.0,3.0,85,0.00,,,0.00,weatherlink.com 1.10,2013-08-16 15:22:00,
2013-08-16 11:37:00,57.0,51.0,30.09,ESE,112,0.0,4.0,81,0.00,,,0.00,weatherlink.com 1.10,2013-08-16 15:37:00,
2013-08-16 11:52:00,57.7,52.0,30.09,NNW,347,0.0,3.0,82,0.00,,,0.00,weatherlink.com 1.10,2013-08-16 15:52:00,
2013-08-16 12:07:00,58.6,50.0,30.09,WNW,293,0.0,6.0,74,0.00,,,0.00,weatherlink.com 1.10,2013-08-16 16:07:00,
2013-08-16 12:22:00,58.8,51.0,30.09,SW,225,2.0,8.0,75,0.00,,,0.00,weatherlink.com 1.10,2013-08-16 16:22:00,
2013-08-16 12:37:00,59.3,51.0,30.09,WNW,286,2.0,7.0,75,0.00,,,0.00,weatherlink.com 1.10,2013-08-16 16:37:00,
2013-08-16 12:52:00,60.2,53.0,30.08,East,100,2.0,5.0,77,0.00,,,0.00,weatherlink.com 1.10,2013-08-16 16:52:00,
2013-08-16 13:07:00,60.7,53.0,30.09,North,355,0.0,6.0,76,0.00,,,0.00,weatherlink.com 1.10,2013-08-16 17:07:00,
2013-08-16 13:22:00,60.7,52.0,30.09,East,90,1.0,3.0,74,0.00,,,0.00,weatherlink.com 1.10,2013-08-16 17:22:00,
2013-08-16 13:37:00,60.7,53.0,30.08,ESE,115,2.0,6.0,75,0.00,,,0.00,weatherlink.com 1.10,2013-08-16 17:37:00,
2013-08-16 13:52:00,60.9,52.0,30.08,WNW,290,0.0,7.0,72,0.00,,,0.00,weatherlink.com 1.10,2013-08-16 17:52:00,
2013-08-16 14:07:00,61.7,50.0,30.08,NW,321,0.0,8.0,66,0.00,,,0.00,weatherlink.com 1.10,2013-08-16 18:07:00,
2013-08-16 14:22:00,61.7,51.0,30.08,NW,304,4.0,8.0,68,0.00,,,0.00,weatherlink.com 1.10,2013-08-16 18:22:00,
2013-08-16 14:37:00,61.3,51.0,30.07,WNW,293,0.0,10.0,69,0.00,,,0.00,weatherlink.com 1.10,2013-08-16 18:37:00,
2013-08-16 14:52:00,61.9,51.0,30.07,SW,229,2.0,7.0,67,0.00,,,0.00,weatherlink.com 1.10,2013-08-16 18:52:00,
2013-08-16 15:07:00,62.3,52.0,30.07,SW,216,3.0,9.0,68,0.00,,,0.00,weatherlink.com 1.10,2013-08-16 19:07:00,
2013-08-16 15:22:00,62.4,52.0,30.07,NW,325,4.0,6.0,70,0.00,,,0.00,weatherlink.com 1.10,2013-08-16 19:22:00,
2013-08-16 15:37:00,61.9,54.0,30.07,West,261,4.0,7.0,74,0.00,,,0.00,weatherlink.com 1.10,2013-08-16 19:37:00,
2013-08-16 15:52:00,62.2,54.0,30.06,SSW,205,1.0,5.0,74,0.00,,,0.00,weatherlink.com 1.10,2013-08-16 19:52:00,
2013-08-16 16:07:00,61.5,53.0,30.06,WSW,244,0.0,4.0,74,0.00,,,0.00,weatherlink.com 1.10,2013-08-16 20:07:00,
2013-08-16 16:22:00,61.8,54.0,30.06,WNW,294,4.0,4.0,76,0.00,,,0.00,weatherlink.com 1.10,2013-08-16 20:22:00,
2013-08-16 16:37:00,62.1,55.0,30.05,WSW,246,2.0,6.0,78,0.00,,,0.00,weatherlink.com 1.10,2013-08-16 20:37:00,
2013-08-16 16:52:00,62.0,54.0,30.05,West,265,0.0,5.0,76,0.00,,,0.00,weatherlink.com 1.10,2013-08-16 20:52:00,
2013-08-16 17:22:00,62.2,55.0,30.05,SSW,209,2.0,6.0,77,0.00,,,0.00,weatherlink.com 1.10,2013-08-16 21:22:00,
2013-08-16 17:37:00,61.8,54.0,30.05,WSW,242,1.0,5.0,76,0.00,,,0.00,weatherlink.com 1.10,2013-08-16 21:37:00,
2013-08-16 17:52:00,61.0,54.0,30.05,WSW,253,0.0,6.0,78,0.00,,,0.00,weatherlink.com 1.10,2013-08-16 21:52:00,
2013-08-16 18:07:00,60.8,55.0,30.05,SW,225,0.0,5.0,80,0.00,,,0.00,weatherlink.com 1.10,2013-08-16 22:07:00,
2013-08-16 18:22:00,60.5,55.0,30.05,WNW,300,0.0,5.0,82,0.00,,,0.00,weatherlink.com 1.10,2013-08-16 22:22:00,
2013-08-16 18:37:00,59.5,55.0,30.05,NNE,22,2.0,4.0,86,0.00,,,0.00,weatherlink.com 1.10,2013-08-16 22:37:00,
2013-08-16 18:52:00,58.1,55.0,30.05,West,269,0.0,1.0,88,0.00,,,0.00,weatherlink.com 1.10,2013-08-16 22:52:00,
2013-08-16 19:07:00,57.5,55.0,30.05,South,182,0.0,1.0,90,0.00,,,0.00,weatherlink.com 1.10,2013-08-16 23:07:00,
2013-08-16 19:22:00,56.6,54.0,30.05,South,182,0.0,0.0,92,0.00,,,0.00,weatherlink.com 1.10,2013-08-16 23:22:00,
2013-08-16 19:37:00,56.0,54.0,30.05,South,182,0.0,0.0,92,0.00,,,0.00,weatherlink.com 1.10,2013-08-16 23:37:00,
2013-08-16 19:52:00,55.5,54.0,30.06,South,182,0.0,0.0,93,0.00,,,0.00,weatherlink.com 1.10,2013-08-16 23:52:00,
2013-08-16 20:07:00,54.7,53.0,30.07,South,182,0.0,0.0,94,0.00,,,0.00,weatherlink.com 1.10,2013-08-17 00:07:00,
2013-08-16 20:22:00,54.2,53.0,30.07,ESE,106,0.0,2.0,95,0.00,,,0.00,weatherlink.com 1.10,2013-08-17 00:22:00,
2013-08-16 20:37:00,53.8,52.0,30.07,SE,140,0.0,2.0,95,0.00,,,0.00,weatherlink.com 1.10,2013-08-17 00:37:00,
2013-08-16 20:52:00,53.6,52.0,30.08,WSW,250,0.0,3.0,95,0.00,,,0.00,weatherlink.com 1.10,2013-08-17 00:52:00,
2013-08-16 21:07:00,53.9,52.0,30.08,SSW,206,0.0,4.0,94,0.00,,,0.00,weatherlink.com 1.10,2013-08-17 01:07:00,
2013-08-16 21:22:00,54.5,52.0,30.09,SE,146,1.0,9.0,92,0.00,,,0.00,weatherlink.com 1.10,2013-08-17 01:22:00,
2013-08-16 21:37:00,54.7,52.0,30.09,SW,221,0.0,7.0,91,0.00,,,0.00,weatherlink.com 1.10,2013-08-17 01:37:00,
2013-08-16 21:52:00,54.5,51.0,30.10,South,187,0.0,9.0,89,0.00,,,0.00,weatherlink.com 1.10,2013-08-17 01:52:00,
2013-08-16 22:07:00,54.4,50.0,30.10,West,261,1.0,4.0,86,0.00,,,0.00,weatherlink.com 1.10,2013-08-17 02:07:00,
2013-08-16 22:22:00,54.2,50.0,30.10,SW,231,0.0,6.0,85,0.00,,,0.00,weatherlink.com 1.10,2013-08-17 02:22:00,
2013-08-16 22:37:00,53.4,50.0,30.09,SSW,198,5.0,9.0,87,0.00,,,0.00,weatherlink.com 1.10,2013-08-17 02:37:00,
2013-08-16 22:52:00,53.5,49.0,30.10,WSW,250,3.0,8.0,84,0.00,,,0.00,weatherlink.com 1.10,2013-08-17 02:52:00,
2013-08-16 23:07:00,52.9,50.0,30.10,WNW,282,0.0,2.0,90,0.00,,,0.00,weatherlink.com 1.10,2013-08-17 03:07:00,
2013-08-16 23:23:00,51.9,50.0,30.10,SE,139,1.0,5.0,93,0.00,,,0.00,weatherlink.com 1.10,2013-08-17 03:23:00,
2013-08-16 23:37:00,51.9,50.0,30.10,SSE,160,0.0,6.0,93,0.00,,,0.00,weatherlink.com 1.10,2013-08-17 03:37:00,
2013-08-16 23:52:00,51.6,50.0,30.09,East,101,2.0,4.0,93,0.00,,,0.00,weatherlink.com 1.10,2013-08-17 03:52:00,